Regional Weather Roundup
Issued by NWS Wakefield, VA

Home | Current Version | Previous Version | Graphics & Text | Print | Product List | Glossary On
Versions: 1 2 3 4 5 6 7 8 9 10 11 12 13 14 15 16 17 18 19 20 21 22 23 24 25 26 27 28 29 30 31 32 33 34 35 36 37 38 39 40 41 42 43 44 45 46 47 48 49 50
000
ASUS41 KAKQ 250015
RWRAKQ

REGIONAL WEATHER ROUNDUP
NATIONAL WEATHER SERVICE WAKEFIELD VA
700 PM EST FRI NOV 24 2017

Note: "fair" indicates few or no clouds below 12,000 feet with no
significant weather and/or obstructions to visibility. * = Denotes
station may not report precipitation (e.g., rain,snow,etc.),
thunder or fog.

VAZ042-051-052>054-056-250100-
NORTHERN VIRGINIA

CITY           SKY/WX    TMP DP  RH WIND       PRES   REMARKS
WASH NATIONAL  CLEAR     47  32  56 S6        29.98R
DULLES         CLEAR     43  29  57 SE6       29.95F
FORT BELVOIR   CLEAR     39  29  67 CALM      29.97S
QUANTICO       CLEAR     47  37  68 S7        29.99R
FREDERICKSBRG* CLEAR     41  32  70 CALM      29.97S
STAFFORD*      CLEAR     38  29  72 CALM      30.01S
WARRENTON      NOT AVBL
CULPEPER*      CLEAR     36  28  72 CALM      29.96F
MANASSAS*      CLEAR     37  29  72 CALM      29.96F
LEESBURG*      CLEAR     46  32  57 S7        29.96S
WINCHESTER     CLEAR     39  27  60 SE3       29.90F
FRONT ROYAL*   CLEAR     43  27  52 CALM      29.90S
LURAY*         CLEAR     43  28  56 S5        29.91F
$$

VAZ048-049-060>072-079>083-250100-
CENTRAL AND SOUTH CENTRAL VIRGINIA

CITY           SKY/WX    TMP DP  RH WIND       PRES   REMARKS
RICHMOND       CLEAR     42  31  64 SE3       29.99R
CHESTERFIELD*  NOT AVBL
PETERSBURG*    CLEAR     30  16  55 CALM      29.99S
HANOVER        CLEAR     38  30  73 CALM      30.00R
TAPPAHANNOCK*    N/A    N/A N/A N/A MISG        N/A
QUINTON*       FAIR      40  31  71 CALM      29.98S
CHARLOTTSVILLE CLEAR     47  29  49 S5        29.95S
GORDONSVILLE*  CLEAR     37  31  78 CALM      29.96S
ORANGE*        CLEAR     37  30  75 CALM      29.96S
LOUISA*        CLEAR     33  29  84 S3        30.01R
BUMPASS*       FAIR      39  30  70 SE3       29.97S
FARMVILLE*     CLEAR     44  32  64 CALM      29.96S
CREWE*         FAIR      37  31  77 CALM      29.97S
FORT PICKETT*  FAIR      41  27  58 CALM      29.98S
CHASE CITY*    FAIR      38  29  68 CALM      29.98R
CLARKSVILLE*   FAIR      37  30  75 CALM      29.97S
SOUTH HILL*    CLEAR     34  32  94 CALM      30.04R
LAWRENCEVILLE* FAIR      39  31  72 CALM      29.98S
EMPORIA*       CLEAR     36  32  87 CALM      30.00S
$$

VAZ088>098-250100-
SOUTHEAST VIRGINIA

CITY           SKY/WX    TMP DP  RH WIND       PRES   REMARKS
NORFOLK        CLEAR     43  40  89 CALM      29.98F
VIRGINIA BEACH CLEAR     40  34  79 CALM      29.98F
NORFOLK NAVAL  CLEAR     41  36  82 CALM      30.00F
WEST POINT*    CLEAR     40  32  73 E6        30.01S
SALUDA*        FAIR      37  35  92 CALM      30.00R
NEWPORT NEWS   CLEAR     35  34  96 CALM      29.99F
LANGLEY AFB    CLEAR     39  36  89 CALM      29.98F
FORT EUSTIS    CLEAR     40  35  81 CALM      29.97S
WILLIAMSBURG*  CLEAR     43  36  75 CALM      30.00S
HR EXEC AP*    NOT AVBL
FRANKLIN*      CLEAR     40  35  82 CALM      29.99S
US460-WAKEFLD  CLEAR     39  35  86 CALM      29.99S
$$

VAZ020-022-025-037-045-250100-
WEST CENTRAL AND SOUTHWEST VIRGINIA

CITY           SKY/WX    TMP DP  RH WIND       PRES   REMARKS
STAUNTON*      CLEAR     41  25  53 CALM      29.94S
WAYNESBORO*    CLEAR     42  24  50 CALM      29.93S
HOT SPRINGS VA CLEAR     45   8  22 CALM      29.93S
LYNCHBURG      CLEAR     39  28  64 CALM      29.96S
DANVILLE       CLEAR     39  32  76 CALM      29.97R
SOUTH BOSTON*  FAIR      39  25  56 CALM      29.98R
MARTINSVILLE   CLEAR     37  28  70 CALM      29.99R
ROANOKE        CLEAR     48  26  42 SE5       29.96S
BLACKSBURG     CLEAR     40  29  64 CALM      29.97R
DUBLIN*        CLEAR     46  25  45 CALM      29.94S
MARION*        CLEAR     43  29  59 CALM      29.95S
HILLSVILLE*    CLEAR     45  28  52 S6        29.93S
RICHLANDS*     FAIR      51  18  27 SW5       29.92S
WISE*          CLEAR     45  32  61 S6        29.92S
ABINGDON*      CLEAR     47  27  45 CALM      29.93R
$$

MDZ021>025-VAZ099-100-250100-
SOUTHERN MARYLAND AND THE DELMARVA PENINSULA

CITY           SKY/WX    TMP DP  RH WIND       PRES   REMARKS
PATUXENT RIVER CLEAR     43  32  65 S5        30.00R
BAY BRIDGE APT CLEAR     45  34  65 S5        29.99R
LEONARDTOWN    CLEAR     41  32  70 CALM      30.01S
DOVER          CLEAR     41  37  87 S8        29.99R HAZE
GEORGETOWN     CLEAR     40  32  73 S3        30.01R
EASTON         CLEAR     41  30  65 CALM      30.02S
CAMBRIDGE      CLEAR     37  34  87 CALM      30.00R
SALISBURY      CLEAR     38  32  79 CALM      30.00S
OCEAN CITY     CLEAR     36  35  96 CALM      30.01S
WALLOPS ISLAND CLEAR     40  37  89 CALM      30.00F
ACCOMACK*      CLEAR     38  36  94 CALM      29.99F
$$

NCZ012>017-030>032-250100-
NORTH CENTRAL AND EASTERN NORTH CAROLINA

CITY           SKY/WX    TMP DP  RH WIND       PRES   REMARKS
ROANOKE RAPIDS FAIR      37  32  81 CALM      29.98S
RALEIGH        PTCLDY    42  28  57 CALM      29.98R
ELIZABETH CITY CLOUDY    47  43  86 N6        29.98F
AHOSKIE*       CLEAR     39  33  80 CALM      29.99S
EDENTON*       CLOUDY    47  40  76 CALM      29.99F
CURRITUCK*     CLOUDY    42  40  91 CALM      29.99F
KILL DEVIL HLS CLOUDY    53  46  76 NE7       29.96S
MANTEO         CLOUDY    52  46  81 NE6       29.98R
CAPE HATTERAS  CLEAR     55  50  83 N9        29.93S
TARBORO*       NOT AVBL
GOLDSBORO      CLEAR     44  33  65 CALM      29.95F
WASHINGTON     CLOUDY    48  38  68 NE5       29.98S
GREENVILLE     CLEAR     41  36  81 CALM      30.00S
NEW BERN       MOCLDY    50  42  74 N8        29.98R
WILMINGTON     CLOUDY    54  38  54 N8        29.95S
$$

VAZ048-250100-
ELSEWHERE

CITY           SKY/WX    TMP DP  RH WIND       PRES   REMARKS
HARRISBURG PA  CLEAR     38  28  67 E5        29.93S
BALTIMORE      CLEAR     42  33  70 S3        29.97R
ANNAPOLIS      CLEAR     46  38  73 S7        29.98R
ANDREWS AFB    CLEAR     39  27  62 SE6       29.96S
PHILADELPHIA   CLEAR     46  30  53 S5        29.98F
HENDERSON NC   CLEAR     38  29  72 CALM      29.98R
GREENSBORO     CLEAR     45  33  63 CALM      29.95S
ROCKY MOUNT    CLEAR     37  33  85 CALM      29.98S
$$

VAZ100-250100-
MARINE

STATION/POSITION TIME  TEMP    WIND        PRES    WAVE   SWELL
                       AIR SEA DIR/SP/G            HT/PER HT/PER
                 (UTC) (F)     (DEG/KT/KT) (MB)    (FT/S) (FT/S)
BRANDYWINE LGT   2348          180/ 13/ 15 1016.1R
CAPE MAY NJ      2348   45 50  150/  5/  6 1015.4R
LEWES DE         2348   44 49  180/  4/  6 1015.7R
15NM E FENWICK I 2350   51 57  120/  8/ 12 1016.3F   3/ 9   3/ 9
OCEAN-CITY-INLET 2348   49 52  170/  2/  5 1016.3F
WACHAPREAGUE VA  2348   42 48  360/  1/  2 1015.7F
THOMAS POINT MD  0000   48 51  160/ 13/ 15   N/A
GOOSES REEF MD   2350   49     210/ 12/ 14 1010.7F
COVE POINT MD    2348   49     180/ 12/ 13 1016.3R
SOLOMONS ISLAND  2348   46 53  180/  5/  7 1015.5R
BISHOPS HEAD MD  2348   46 48  170/  5/  7 1016.1R
PINEY POINT MD   2348          190/  8/ 10   N/A
POTOMAC MD       2350   48     180/  8/ 10 1015.2R
CAMBRIDGE MD     2348                      1016.3R
LEWISETTA VA     2348   45 49  200/  5/  6 1015.7R
RAPPAHANNOCK LGT 2348           90/  5/  5 1016.2F
STINGRAY PT      2350   49     160/  8/ 10 1015.9F
YORK RVR RNG VA  2348   49     130/  7/  8 1015.9F
YORKTOWN VA      2348   45 53  140/  2/  3 1015.1F
JAMESTOWN VA     2350          110/  4/  6   N/A
DOMINION TERM VA 2348   50     100/  3/  5 1015.6F
KIPTOPEKE VA     2348      53   50/  5/  6   N/A
CAPE HENRY VA    2348   51      90/  6/  8   N/A
WILLOUBY STN VA  2348          130/  5/  5 1015.3F
S CRANEY ISL VA  2348   49     110/  3/  4 1015.2F
CAPE HENRY BUOY  0000      59                N/A     3/10   2/11
1ST LANDING BUOY 2350   51     120/  6/  8 1015.6F
CAPE CHARLES BUO 2351      58                N/A     3/10   2/11
64NM E OF VA BCH 2350   57 61   50/ 10/ 14 1015.1F   5/10   5/10
DUCK PIER NC     2348   54 56   50/ 11/ 13 1014.5F
44100 DUCK FRF   2345      60                N/A     4/10   2/11
44056 DUCK FRF   0000      59                N/A     4/10   2/11
OREGON INLET NC  2348           20/ 11/ 13 1014.2F
HATTERAS NC      2348   55 58   10/ 15/ 18 1013.3R
DIAMOND SHLS NC  0000   63 69   10/ 21/ 25 1013.1
CAPE LOOKOUT NC  0000           10/ 15/ 17 1013.6F
$$



USA.gov is the U.S. government's official web portal to all federal, state and local government web resources and services.